This demonstration page uses our WeatherBlox Daily Observations layout. Learn more.

38.88101, -77.10428

Hourly Observations for August 30, 2017

Temp ( °F °C ) Dew Point ( °F °C ) Humidity (%) Winds ( mph kmh ) Pressure ( in mb ) Visibility ( mi km ) Precip ( " mm )
12:47 am 00:47 Cloudy 64 18 63 17 94 94 N 12 19 30 1016 10 16.0934 0 0
12:52 am 00:52 Cloudy 65 18.3 62 16.7 90 90 N 10 17 30.01 1016 10 16.0934 0 0
1:52 am 01:52 Cloudy 64 17.8 61 16.1 90 90 N 13 20 30 1016 10 16.0934 0 0
2:24 am 02:24 Cloudy 64 17.8 61 16.1 90 90 NNW 9 15 30 1016 10 16.0934 0 0
2:52 am 02:52 Cloudy 64 17.8 61 16.1 90 90 NNW 10 17 29.99 1016 10 16.0934 0 0
3:52 am 03:52 Cloudy 64 17.8 60 15.6 87 87 NNW 9 15 29.99 1016 10 16.0934 0 0
4:52 am 04:52 Cloudy 63 17.2 60 15.6 90 90 NNW 8 13 30 1016 10 16.0934 0 0
5:52 am 05:52 Partly Cloudy 62 16.7 60 15.6 93 93 NNW 9 15 30.01 1016 10 16.0934 0 0
6:46 am 06:46 Mostly Cloudy 63 17 61 16 94 94 NNW 7 11 30.03 1017 10 16.0934 0 0
6:52 am 06:52 Mostly Cloudy 62 16.7 60 15.6 93 93 NNW 8 13 30.02 1017 10 16.0934 0 0
7:52 am 07:52 Mostly Cloudy 63 17.2 60 15.6 90 90 NNW 7 11 30.05 1018 10 16.0934 0 0
8:52 am 08:52 Mostly Cloudy 67 19.4 60 15.6 79 79 N 9 15 30.05 1018 10 16.0934 0 0
9:52 am 09:52 Mostly Cloudy 69 20.6 60 15.6 73 73 N 5 7 30.05 1018 10 16.0934 0 0
10:52 am 10:52 Mostly Cloudy 72 22.2 61 16.1 68 68 W 6 9 30.05 1018 10 16.0934 0 0
11:13 am 11:13 Mostly Cloudy 73 22.8 61 16.1 66 66 VRB 5 7 30.06 1018 10 16.0934 0 0
11:52 am 11:52 Mostly Cloudy 73 22.8 60 15.6 64 64 Calm 30.05 1018 10 16.0934 0 0
12:52 pm 12:52 Mostly Cloudy 75 23.9 58 14.4 55 55 VRB 3 6 30.03 1017 10 16.0934 0 0
1:52 pm 13:52 Mostly Cloudy 76 24.4 59 15 56 56 VRB 5 7 30.02 1017 10 16.0934 0 0
2:49 pm 14:49 Cloudy 77 25 61 16 57 57 WSW 6 9 30 1016 10 16.0934 0 0
2:52 pm 14:52 Cloudy 77 25 60 15.6 56 56 W 6 9 30.01 1016 10 16.0934 0 0
3:52 pm 15:52 Mostly Cloudy 77 25 59 15 54 54 WSW 3 6 30 1016 10 16.0934 0 0
4:52 pm 16:52 Mostly Cloudy 78 25.6 59 15 52 52 VRB 5 7 29.99 1016 10 16.0934 0 0
5:52 pm 17:52 Mostly Cloudy 78 25.6 59 15 52 52 N 7 11 29.99 1016 10 16.0934 0 0
6:52 pm 18:52 Mostly Cloudy 76 24.4 63 17.2 64 64 S 7 11 29.99 1016 10 16.0934 0 0
7:52 pm 19:52 Mostly Cloudy 75 23.9 62 16.7 64 64 SSW 9 15 30 1016 10 16.0934 0 0
8:52 pm 20:52 Partly Cloudy 72 22.2 63 17.2 73 73 SSW 6 9 30.02 1017 10 16.0934 0 0
9:52 pm 21:52 Partly Cloudy 71 21.7 64 17.8 79 79 SSW 5 7 30.02 1017 10 16.0934 0 0
10:52 pm 22:52 Mostly Cloudy 71 21.7 65 18.3 81 81 Calm 30.02 1017 10 16.0934 0 0
11:52 pm 23:52 Cloudy 70 21.1 65 18.3 84 84 SSW 6 9 30.01 1016 10 16.0934 0 0

Powered by AerisWeather